GBLDV EGPA-EGEN

Flight info

Callsign GBLDV
Flight time 0h 14m
Altitude 5000
Route EGES
Aircraft BN2P/L-SFG/C

Departure

Time 2026-04-25 14:21
Airport Kirkwall Airport (EGPA)

Arrival

Time 2026-04-25 14:35
Airport North Ronaldsay Airport (EGEN)
Time Latitude Longitude Altitude Speed Heading
2026-04-25 14:14 58.95397 -2.90058 51 ft 0 kts 177°
2026-04-25 14:19 58.95394 -2.90053 51 ft 2 kts 108°
2026-04-25 14:19 58.95426 -2.90016 51 ft 11 kts 23°
2026-04-25 14:19 58.95502 -2.90041 51 ft 9 kts 314°
2026-04-25 14:19 58.95504 -2.90046 51 ft 0 kts 315°
2026-04-25 14:20 58.95507 -2.90051 51 ft 7 kts 318°
2026-04-25 14:20 58.95542 -2.90106 52 ft 32 kts 321°
2026-04-25 14:20 58.96269 -2.91210 201 ft 104 kts 325°
2026-04-25 14:20 58.96952 -2.91575 456 ft 104 kts 11°
2026-04-25 14:21 58.97628 -2.91279 845 ft 102 kts 19°
2026-04-25 14:21 58.98183 -2.90459 1129 ft 108 kts 66°
2026-04-25 14:21 58.98469 -2.89090 1414 ft 112 kts 60°
2026-04-25 14:21 58.98873 -2.87785 1682 ft 114 kts 51°
2026-04-25 14:22 58.99407 -2.86671 1954 ft 111 kts 42°
2026-04-25 14:22 58.99999 -2.85704 2155 ft 116 kts 38°
2026-04-25 14:22 59.00656 -2.84731 2248 ft 124 kts 36°
2026-04-25 14:22 59.01389 -2.83736 2277 ft 133 kts 32°
2026-04-25 14:23 59.02195 -2.82815 2287 ft 135 kts 29°
2026-04-25 14:23 59.03004 -2.81944 2296 ft 131 kts 28°
2026-04-25 14:23 59.03797 -2.81087 2318 ft 130 kts 30°
2026-04-25 14:23 59.04581 -2.80200 2317 ft 130 kts 30°
2026-04-25 14:24 59.05355 -2.79307 2324 ft 129 kts 31°
2026-04-25 14:24 59.06126 -2.78424 2333 ft 129 kts 30°
2026-04-25 14:24 59.06897 -2.77553 2336 ft 127 kts 30°
2026-04-25 14:24 59.07666 -2.76688 2341 ft 127 kts 30°
2026-04-25 14:25 59.08432 -2.75816 2335 ft 128 kts 30°
2026-04-25 14:25 59.09191 -2.74962 2328 ft 127 kts 30°
2026-04-25 14:25 59.09956 -2.74099 2325 ft 127 kts 30°
2026-04-25 14:25 59.10213 -2.73808 2327 ft 127 kts 30°
2026-04-25 14:26 59.11483 -2.72362 2319 ft 127 kts 30°
2026-04-25 14:26 59.12248 -2.71494 2318 ft 128 kts 30°
2026-04-25 14:26 59.13015 -2.70625 2316 ft 127 kts 31°
2026-04-25 14:26 59.13780 -2.69757 2316 ft 127 kts 31°
2026-04-25 14:27 59.14542 -2.68888 2306 ft 127 kts 31°
2026-04-25 14:27 59.15303 -2.68019 2308 ft 127 kts 30°
2026-04-25 14:27 59.15813 -2.67439 2308 ft 128 kts 30°
2026-04-25 14:27 59.16835 -2.66282 2308 ft 128 kts 30°
2026-04-25 14:28 59.17601 -2.65407 2309 ft 127 kts 30°
2026-04-25 14:28 59.18118 -2.64813 2307 ft 128 kts 30°
2026-04-25 14:28 59.18885 -2.63943 2310 ft 127 kts 30°
2026-04-25 14:28 59.19647 -2.63079 2312 ft 129 kts 31°
2026-04-25 14:29 59.20418 -2.62197 2315 ft 129 kts 31°
2026-04-25 14:29 59.21186 -2.61318 2318 ft 127 kts 31°
2026-04-25 14:29 59.21949 -2.60447 2319 ft 127 kts 31°
2026-04-25 14:29 59.22708 -2.59572 2319 ft 127 kts 30°
2026-04-25 14:30 59.23211 -2.58991 2281 ft 130 kts 30°
2026-04-25 14:30 59.25085 -2.56854 1921 ft 134 kts 28°
2026-04-25 14:30 59.25880 -2.55955 1757 ft 130 kts 24°
2026-04-25 14:31 59.26721 -2.55404 1595 ft 128 kts 18°
2026-04-25 14:31 59.27569 -2.54858 1442 ft 127 kts 19°
2026-04-25 14:31 59.28391 -2.54288 1361 ft 123 kts 19°
2026-04-25 14:31 59.29175 -2.53705 1329 ft 118 kts 20°
2026-04-25 14:32 59.29933 -2.53144 1316 ft 115 kts 20°
2026-04-25 14:32 59.30671 -2.52600 1290 ft 112 kts 20°
2026-04-25 14:32 59.31390 -2.52100 1285 ft 110 kts 20°
2026-04-25 14:32 59.32100 -2.51592 1296 ft 108 kts 20°
2026-04-25 14:33 59.32811 -2.51085 1221 ft 110 kts 20°
2026-04-25 14:33 59.33547 -2.50602 1048 ft 113 kts 17°
2026-04-25 14:33 59.34292 -2.50173 840 ft 108 kts 18°
2026-04-25 14:33 59.34951 -2.49698 684 ft 96 kts 22°
2026-04-25 14:34 59.35527 -2.49093 559 ft 91 kts 32°
2026-04-25 14:34 59.36023 -2.48356 409 ft 88 kts 38°
2026-04-25 14:34 59.36441 -2.47514 309 ft 85 kts 48°
2026-04-25 14:34 59.36727 -2.46532 279 ft 82 kts 67°
2026-04-25 14:35 59.36850 -2.45441 177 ft 85 kts 86°
2026-04-25 14:35 59.36794 -2.44244 97 ft 88 kts 94°
2026-04-25 14:35 59.36744 -2.43171 61 ft 58 kts 95°
2026-04-25 14:35 59.36754 -2.42934 56 ft 0 kts
2026-04-25 14:36 59.36764 -2.42933 57 ft 5 kts 12°
2026-04-25 14:36 59.36782 -2.42922 58 ft 0 kts 21°